Wind_Speed
24 25 25 26 24 17 15 15 13 13 12 11 10 9 9 9 8 8 8 8 7 7 7 6 6 5 5 4 4 4 4 5 6 6 6 6 7 7 7 7 8 8 8 9 8 9 10 10 10
23 24 28 26 18 15 16 16 15 14 13 13 12 12 11 10 9 9 9 8 8 8 8 7 7 5 5 4 4 4 5 5 5 5 6 6 6 6 7 7 8 9 9 10 10 10 11 10 10
25 28 28 20 14 15 16 16 16 15 15 15 14 14 13 12 11 10 10 9 9 9 8 8 7 6 5 4 4 4 4 4 4 5 5 5 5 5 6 8 9 9 10 10 10 11 11 10 9
27 30 24 16 15 16 17 17 17 16 16 15 15 14 14 14 12 11 11 11 10 9 9 8 7 6 5 4 4 4 4 4 4 4 5 5 6 6 6 8 10 10 10 10 11 10 10 10 9
29 25 18 15 16 17 17 18 18 18 17 17 16 15 15 15 14 13 12 11 11 10 9 9 8 7 6 5 4 4 4 4 4 4 4 5 6 6 7 9 10 10 10 11 10 10 9 9 9
25 17 13 13 15 16 18 19 19 19 18 18 18 18 17 16 15 15 14 13 12 11 10 9 8 7 6 5 4 4 4 4 4 3 4 5 5 6 7 8 8 9 9 9 10 10 9 9 8
19 15 12 11 13 15 17 17 19 20 19 20 20 19 18 17 16 16 15 14 14 13 11 9 8 6 5 5 4 4 3 3 3 3 4 5 5 6 7 8 7 8 8 8 8 8 8 8 8
14 13 11 11 12 13 16 17 18 20 20 21 21 20 19 18 17 17 16 16 15 14 12 10 8 7 6 5 4 4 4 3 3 3 4 5 6 6 6 8 8 8 8 8 8 8 7 7 7
11 11 11 10 11 12 14 15 17 20 21 21 20 20 20 19 18 18 17 16 16 14 13 12 10 8 7 6 5 4 3 3 3 3 4 5 6 6 6 7 7 7 7 7 7 7 7 7 6
8 8 9 8 9 10 12 15 18 19 20 20 20 20 20 20 19 19 18 17 16 15 14 12 11 9 7 6 5 4 3 3 3 3 3 4 5 6 6 7 7 7 6 6 7 6 6 6 5
6 7 7 8 8 10 12 14 16 16 18 20 20 21 21 21 21 20 19 18 17 16 15 13 12 10 8 7 6 5 4 3 3 3 3 3 3 4 5 6 6 6 6 6 6 6 6 4 5
4 5 6 6 8 9 10 11 13 14 16 18 20 21 21 21 21 21 20 19 18 16 15 14 13 11 10 8 7 6 5 4 3 3 3 3 2 3 4 4 5 6 5 5 5 5 4 4 4
2 3 5 6 8 8 9 9 12 13 14 16 18 20 20 21 21 21 20 19 18 17 16 14 13 13 11 9 8 7 6 4 3 3 3 3 2 2 2 3 3 4 4 4 4 4 4 4 3
2 1 2 5 6 6 6 7 10 12 13 14 16 18 20 20 20 20 19 19 18 17 16 15 14 14 12 11 9 7 6 5 4 3 2 2 2 1 1 1 2 2 2 3 4 4 4 4 4
3 2 1 4 5 6 7 7 8 10 11 12 14 16 18 19 20 19 19 19 18 17 16 16 15 14 13 12 11 9 8 6 5 4 3 2 1 1 0 1 2 2 3 3 4 4 4 4 4
3 4 4 3 5 7 8 8 10 10 10 11 12 14 15 17 18 18 18 18 18 17 16 15 15 14 13 12 11 10 10 8 6 5 4 3 2 1 1 1 2 3 4 4 4 5 5 5 5
8 9 5 4 5 6 8 8 11 9 9 10 10 11 13 13 15 16 17 17 17 17 16 15 15 14 13 13 12 11 10 9 8 7 6 5 4 2 2 1 2 2 3 4 5 6 6 5 6
8 7 6 5 5 5 7 8 9 9 8 9 10 10 11 12 13 14 15 16 16 16 16 15 14 14 13 12 12 11 10 9 8 7 6 6 4 4 3 2 2 2 3 4 5 6 6 7 7
8 8 7 5 6 6 8 9 9 8 9 9 9 10 10 11 12 13 13 14 15 15 15 15 14 14 13 12 12 11 10 10 8 8 6 5 5 4 3 3 3 3 3 4 5 6 6 7 7
12 10 8 8 8 7 8 10 10 8 10 10 10 10 9 10 11 12 12 13 13 13 13 14 14 14 14 13 12 11 11 10 8 7 7 6 6 5 4 3 3 3 4 4 5 6 7 7 7
13 12 12 11 8 8 10 12 12 10 8 11 12 10 9 9 10 11 11 11 12 12 13 13 13 14 14 13 13 12 11 10 9 8 7 6 6 6 6 5 4 4 4 5 5 6 7 7 8
14 13 13 11 10 11 11 14 15 15 11 10 12 11 9 10 9 10 10 10 11 12 12 12 13 13 14 13 12 12 11 11 9 8 8 7 7 6 6 5 5 4 5 5 6 6 7 7 8
16 15 14 14 13 14 13 16 15 15 12 10 11 11 11 10 10 10 10 10 11 12 12 12 13 13 13 13 12 12 12 11 10 9 8 8 7 7 7 6 5 5 6 6 6 6 7 8 8
18 17 16 15 15 17 15 15 17 17 14 13 11 9 10 11 11 11 11 11 11 12 12 12 12 13 13 13 13 13 12 11 10 9 8 8 8 7 7 7 6 6 6 6 6 6 7 8 8
20 18 15 16 17 17 16 15 18 19 17 16 14 13 12 13 12 12 12 12 12 12 12 12 12 13 14 14 13 13 12 12 11 10 10 9 8 8 8 7 8 7 7 7 7 8 8 8 9
20 19 19 19 19 19 17 16 17 17 17 17 16 15 16 14 14 14 13 13 12 12 12 11 12 13 14 14 13 13 13 13 12 12 11 10 9 9 8 8 8 8 8 8 8 9 9 10 10
21 21 19 20 20 21 20 17 17 16 16 16 17 17 19 18 16 15 14 13 13 13 13 13 13 13 14 15 14 13 13 13 13 12 11 11 11 10 9 9 9 9 9 9 10 10 10 10 11
23 21 20 21 22 21 19 18 16 18 17 17 17 19 20 19 18 17 15 15 14 14 14 14 14 14 14 14 14 13 13 13 13 12 12 12 11 11 11 11 11 11 10 10 11 11 11 12 13
23 23 23 23 22 21 20 22 19 18 20 19 18 19 20 21 19 17 16 15 15 16 16 15 15 15 15 15 15 14 14 14 13 13 12 13 13 13 12 12 12 12 12 12 13 13 13 13 14
23 24 23 24 24 23 21 22 20 19 20 20 20 20 19 19 20 18 18 16 16 17 18 18 17 17 16 16 16 16 15 15 14 14 14 14 14 14 14 13 13 13 13 14 14 15 15 15 15
Wind_Direction
64 65 62 56 49 46 48 48 47 49 51 52 52 52 53 52 47 45 41 40 40 40 40 39 40 50 63 80 92 102 114 118 127 136 138 137 131 127 128 132 133 130 128 127 124 125 121 120 124
66 65 60 53 44 42 46 46 49 52 54 53 52 53 53 54 54 53 48 43 42 41 41 44 43 47 58 64 80 92 99 111 121 134 134 133 130 122 122 130 137 134 127 123 122 125 124 125 123
67 60 58 48 40 45 47 47 48 51 52 51 51 52 53 55 56 55 49 47 46 46 44 50 50 53 58 61 74 82 96 103 111 119 128 124 120 116 120 127 134 134 130 128 124 120 121 121 117
67 60 54 44 44 47 48 49 48 48 51 50 51 52 53 55 55 53 51 49 50 50 48 49 52 59 67 66 67 78 91 97 106 117 121 115 111 110 115 121 125 128 129 128 126 123 121 120 117
67 64 53 39 40 46 48 51 50 51 52 52 52 51 52 53 54 54 53 49 50 51 49 49 51 55 62 69 74 87 94 94 100 105 109 110 111 115 119 119 121 126 129 129 126 124 120 120 120
68 63 51 38 39 45 47 47 49 49 51 52 52 51 51 52 52 52 52 50 49 49 51 51 52 54 58 64 66 78 89 90 84 89 94 114 117 118 120 121 121 123 124 128 126 124 122 124 123
66 67 58 41 34 42 49 49 50 48 49 51 51 49 49 50 49 51 51 49 46 46 48 51 54 58 62 63 66 71 80 86 88 94 95 112 121 124 124 122 126 127 126 126 129 130 127 124 120
67 67 53 41 38 38 46 50 51 50 49 48 47 46 46 47 47 48 49 48 47 45 48 52 54 57 62 64 67 68 74 84 91 98 102 108 119 123 126 129 127 131 131 131 131 132 131 127 125
62 68 56 38 31 32 39 47 51 51 49 48 46 45 46 47 47 48 48 48 48 47 48 52 51 56 56 58 61 64 69 79 87 101 107 117 123 125 130 133 129 134 136 133 130 132 135 134 130
50 61 56 36 30 32 36 42 45 45 44 46 45 45 46 48 48 49 47 46 46 45 44 47 46 49 54 54 54 54 55 76 92 104 104 112 124 132 135 136 132 133 138 137 135 136 139 140 141
40 50 47 37 34 37 35 39 41 42 43 43 43 44 46 49 49 48 47 45 43 43 42 41 43 42 46 51 51 50 51 64 87 102 108 106 121 136 135 142 144 143 144 144 145 144 142 138 141
42 37 47 35 29 39 39 39 38 41 42 42 43 44 45 47 49 47 46 45 43 41 40 40 41 41 42 43 43 50 54 64 73 76 85 92 104 128 142 148 150 153 153 153 154 153 151 140 134
93 32 33 26 25 29 35 33 31 36 37 38 41 42 44 45 44 44 44 42 42 40 39 40 40 41 39 41 40 46 50 51 58 66 65 76 76 97 127 152 153 155 155 161 159 164 171 169 160
151 111 20 18 11 12 28 32 29 27 28 31 35 39 41 41 41 41 41 40 39 38 39 40 40 39 41 42 40 46 45 46 45 47 52 56 61 78 104 154 170 178 186 189 183 183 185 184 181
202 210 328 1 354 356 2 16 22 24 20 22 29 34 36 37 37 38 38 38 36 36 37 40 40 38 38 40 40 42 43 46 42 36 40 53 52 20 72 192 199 213 224 219 212 205 201 201 201
233 260 260 311 336 345 360 356 357 5 16 16 24 29 31 32 32 34 34 34 34 34 35 36 38 38 37 37 37 38 38 33 37 29 28 38 23 351 286 248 233 237 237 233 226 218 216 217 220
234 247 261 278 313 328 336 334 336 354 7 12 16 21 22 23 25 27 28 29 31 32 31 30 32 33 32 32 31 29 30 31 34 33 28 28 26 16 350 297 265 248 239 239 234 228 229 234 236
239 248 257 267 291 298 303 305 319 334 350 357 5 13 15 15 16 21 23 24 26 27 26 25 25 26 27 26 26 26 26 26 28 28 23 20 17 9 357 331 301 276 259 249 246 243 241 242 243
246 244 242 253 269 270 280 289 296 319 330 340 346 353 1 5 8 13 17 17 19 21 22 20 20 20 20 18 19 21 20 19 18 19 18 12 13 1 347 334 307 289 277 274 268 263 255 250 250
241 242 244 246 250 262 267 276 283 297 314 326 330 335 345 355 1 3 7 10 11 14 15 15 15 14 14 12 11 12 11 11 9 6 6 2 359 355 345 339 322 307 290 280 274 272 267 264 260
235 243 244 247 252 274 276 277 276 272 283 306 318 325 332 343 353 358 360 0 4 7 8 8 9 8 7 8 7 5 6 5 2 357 355 355 351 344 343 337 325 315 307 290 280 279 278 273 269
234 240 250 256 257 258 262 272 274 274 266 283 306 312 321 329 340 352 355 355 355 358 360 0 2 3 1 1 2 1 359 358 356 351 350 348 348 342 336 333 326 319 311 298 292 290 290 283 278
232 236 244 248 248 253 250 262 270 277 270 273 290 300 310 319 328 336 342 343 343 346 349 351 355 356 354 353 354 354 353 352 350 347 343 340 338 335 334 325 319 315 310 300 293 298 299 293 285
227 236 240 245 246 254 256 260 274 274 274 276 277 283 295 302 315 323 328 332 335 338 341 344 347 350 349 346 346 347 348 346 342 342 338 334 332 329 326 323 313 308 305 303 302 306 310 304 298
229 232 242 251 252 253 251 250 262 272 275 281 280 280 288 296 301 309 317 323 326 329 331 335 339 343 344 342 341 340 340 339 336 335 334 329 327 326 325 322 319 309 299 298 299 301 304 306 303
231 230 235 246 254 259 253 243 251 260 267 271 274 277 283 282 289 297 304 313 318 320 323 325 329 332 334 335 334 335 336 335 335 335 335 331 326 325 328 328 321 318 306 300 300 299 301 305 306
227 230 233 247 256 263 262 251 254 260 267 269 271 272 276 280 283 287 297 305 309 312 315 318 319 321 323 324 325 328 331 333 332 330 328 327 326 323 322 320 320 316 312 305 302 303 302 304 307
229 231 232 237 247 255 263 265 256 260 261 262 268 272 275 276 278 284 291 297 301 306 308 310 312 313 314 318 320 324 324 325 326 326 325 323 323 322 317 314 312 311 309 309 303 301 298 298 302
231 227 228 234 238 248 260 262 257 257 260 260 266 272 273 274 271 272 281 289 294 299 303 304 305 306 306 308 309 313 313 315 318 322 323 323 321 321 316 312 310 307 305 306 305 303 301 301 303
232 233 232 233 234 236 250 264 269 264 263 265 265 269 267 267 272 274 279 282 288 294 298 299 298 299 300 301 302 306 306 306 311 313 315 316 317 316 314 310 309 306 305 305 305 303 302 302 303
Height
5899 5896 5895 5892 5892 5894 5891 5890 5888 5886 5884 5883 5881 5880 5878 5877 5877 5878 5874 5873 5873 5872 5871 5871 5871 5871 5871 5871 5871 5871 5871 5871 5871 5871 5872 5872 5872 5873 5873 5873 5874 5874 5875 5875 5876 5877 5878 5879 5881
5902 5900 5896 5896 5899 5897 5895 5893 5891 5889 5887 5885 5883 5881 5880 5879 5878 5877 5875 5875 5875 5874 5873 5872 5872 5872 5872 5872 5872 5872 5872 5872 5873 5873 5873 5873 5873 5874 5874 5874 5875 5875 5876 5877 5877 5878 5879 5881 5882
5904 5900 5899 5904 5904 5900 5898 5896 5893 5891 5889 5887 5885 5884 5882 5881 5879 5878 5877 5877 5876 5875 5874 5874 5874 5873 5874 5873 5873 5874 5874 5874 5874 5874 5874 5874 5875 5875 5875 5875 5875 5876 5877 5878 5879 5880 5881 5882 5883
5905 5903 5908 5910 5906 5903 5901 5899 5896 5894 5891 5889 5888 5886 5884 5883 5881 5880 5879 5878 5877 5877 5876 5875 5875 5875 5875 5875 5875 5875 5875 5875 5876 5876 5876 5876 5876 5876 5876 5876 5877 5878 5879 5880 5881 5882 5883 5884 5885
5906 5910 5914 5913 5909 5907 5904 5902 5899 5897 5894 5892 5891 5888 5886 5885 5883 5882 5881 5880 5879 5878 5877 5877 5876 5876 5876 5876 5877 5877 5877 5877 5877 5877 5877 5878 5878 5878 5878 5878 5878 5880 5881 5882 5883 5884 5885 5886 5887
5913 5915 5918 5916 5913 5911 5908 5905 5903 5900 5897 5895 5893 5891 5889 5888 5886 5884 5883 5882 5881 5880 5879 5878 5878 5877 5877 5878 5878 5878 5878 5879 5879 5879 5879 5879 5879 5879 5880 5880 5881 5882 5883 5884 5885 5886 5887 5888 5889
5918 5919 5920 5919 5916 5913 5911 5909 5906 5903 5901 5898 5896 5894 5892 5890 5888 5886 5885 5884 5882 5881 5880 5880 5879 5879 5879 5879 5879 5880 5880 5880 5880 5880 5880 5880 5881 5881 5882 5882 5883 5884 5885 5886 5887 5887 5888 5889 5890
5923 5923 5923 5922 5919 5916 5914 5912 5909 5906 5904 5901 5899 5897 5895 5893 5891 5889 5887 5886 5884 5883 5882 5882 5881 5881 5881 5881 5881 5881 5881 5881 5881 5881 5882 5882 5883 5883 5883 5884 5885 5885 5886 5887 5888 5889 5890 5891 5892
5926 5928 5926 5924 5922 5919 5917 5914 5912 5909 5907 5905 5903 5901 5898 5895 5893 5891 5889 5888 5887 5886 5884 5883 5883 5883 5883 5882 5882 5882 5882 5882 5882 5882 5883 5883 5884 5884 5885 5886 5886 5887 5888 5889 5890 5891 5891 5892 5893
5930 5930 5929 5927 5925 5922 5919 5917 5914 5912 5910 5908 5906 5903 5901 5898 5895 5894 5892 5890 5889 5888 5886 5885 5885 5884 5884 5884 5883 5883 5884 5883 5883 5883 5884 5885 5886 5886 5887 5887 5888 5889 5889 5890 5891 5892 5893 5894 5894
5933 5932 5931 5929 5926 5924 5921 5919 5917 5915 5913 5911 5909 5906 5904 5901 5898 5897 5895 5893 5892 5890 5889 5888 5886 5886 5886 5885 5885 5884 5884 5885 5885 5885 5885 5886 5887 5887 5888 5888 5889 5890 5891 5892 5892 5893 5894 5894 5894
5935 5933 5932 5931 5928 5926 5924 5922 5920 5918 5917 5914 5912 5909 5907 5904 5902 5900 5898 5896 5894 5893 5891 5890 5889 5888 5888 5887 5887 5886 5886 5886 5886 5886 5886 5887 5888 5888 5888 5890 5890 5891 5892 5892 5892 5893 5894 5895 5896
5936 5935 5934 5932 5930 5928 5926 5924 5923 5921 5919 5917 5914 5912 5909 5907 5905 5903 5901 5899 5897 5895 5893 5892 5891 5890 5890 5888 5888 5887 5887 5887 5887 5887 5888 5888 5889 5889 5889 5890 5891 5892 5892 5893 5893 5894 5895 5895 5896
5935 5935 5934 5933 5932 5930 5927 5925 5925 5923 5921 5919 5916 5914 5912 5909 5907 5906 5904 5902 5900 5898 5896 5895 5894 5893 5892 5890 5890 5889 5889 5888 5888 5889 5889 5889 5889 5890 5891 5891 5891 5892 5893 5894 5894 5895 5895 5896 5897
5934 5935 5935 5934 5932 5931 5929 5927 5925 5924 5923 5921 5918 5916 5914 5912 5910 5908 5907 5905 5903 5901 5899 5898 5896 5895 5894 5893 5892 5890 5890 5890 5890 5890 5890 5890 5890 5890 5891 5891 5892 5892 5893 5894 5894 5895 5896 5896 5897
5935 5935 5934 5935 5934 5932 5932 5929 5927 5925 5923 5922 5920 5918 5916 5914 5913 5911 5909 5907 5905 5903 5902 5900 5898 5897 5896 5895 5894 5893 5892 5891 5891 5891 5890 5890 5890 5890 5891 5891 5891 5892 5893 5893 5894 5895 5895 5896 5896
5935 5933 5934 5935 5934 5934 5932 5930 5928 5926 5925 5924 5922 5920 5918 5916 5914 5913 5911 5910 5908 5906 5904 5902 5900 5900 5899 5897 5896 5895 5894 5893 5892 5892 5892 5891 5891 5891 5891 5891 5891 5892 5892 5893 5893 5894 5895 5895 5896
5933 5933 5934 5934 5935 5935 5933 5931 5929 5927 5925 5924 5923 5921 5920 5918 5916 5915 5913 5912 5910 5908 5906 5905 5903 5902 5901 5899 5898 5897 5896 5895 5894 5893 5893 5892 5891 5891 5891 5891 5891 5891 5891 5892 5892 5893 5893 5894 5894
5933 5933 5933 5934 5935 5936 5934 5931 5929 5928 5926 5925 5924 5922 5921 5919 5918 5916 5914 5913 5911 5910 5908 5907 5905 5904 5902 5901 5899 5898 5897 5896 5895 5894 5893 5893 5892 5892 5891 5891 5891 5891 5891 5891 5891 5892 5892 5892 5893
5931 5932 5933 5933 5934 5934 5933 5931 5930 5927 5926 5925 5924 5922 5921 5920 5918 5917 5915 5914 5912 5911 5909 5908 5906 5905 5903 5902 5900 5899 5898 5897 5896 5895 5894 5893 5892 5892 5891 5891 5891 5890 5890 5890 5890 5890 5891 5891 5891
5929 5930 5931 5932 5932 5933 5933 5931 5928 5926 5925 5925 5924 5922 5921 5919 5918 5917 5916 5915 5913 5912 5910 5909 5907 5905 5904 5902 5901 5900 5898 5897 5896 5895 5894 5893 5892 5891 5891 5890 5890 5890 5890 5889 5889 5889 5889 5889 5889
5926 5929 5929 5929 5930 5932 5932 5930 5927 5924 5921 5923 5923 5921 5920 5919 5918 5917 5916 5915 5914 5912 5911 5909 5908 5906 5904 5903 5901 5900 5898 5897 5896 5895 5894 5893 5892 5891 5890 5890 5889 5889 5889 5889 5888 5888 5888 5888 5888
5923 5925 5926 5927 5928 5928 5929 5927 5924 5923 5919 5919 5920 5920 5918 5918 5917 5917 5916 5915 5913 5912 5911 5909 5908 5906 5904 5903 5901 5900 5898 5897 5895 5894 5893 5892 5891 5890 5890 5889 5889 5888 5888 5887 5887 5887 5886 5886 5885
5919 5921 5922 5923 5924 5925 5926 5925 5922 5920 5918 5917 5916 5917 5917 5917 5916 5915 5915 5914 5913 5912 5910 5909 5907 5906 5904 5903 5901 5899 5898 5896 5895 5894 5893 5892 5891 5890 5889 5888 5888 5887 5887 5886 5886 5885 5885 5884 5884
5914 5917 5919 5920 5920 5921 5922 5922 5921 5918 5918 5916 5915 5914 5915 5915 5914 5914 5913 5912 5911 5910 5910 5908 5907 5905 5904 5902 5901 5899 5897 5895 5894 5893 5892 5891 5890 5889 5888 5887 5886 5886 5885 5885 5884 5884 5883 5882 5882
5909 5913 5916 5918 5918 5917 5916 5917 5917 5916 5915 5915 5915 5914 5913 5913 5913 5912 5911 5911 5910 5909 5908 5907 5906 5904 5903 5902 5900 5898 5896 5895 5893 5892 5891 5890 5889 5888 5887 5886 5885 5884 5883 5883 5882 5882 5881 5881 5880
5904 5908 5912 5914 5914 5913 5912 5912 5912 5913 5912 5912 5912 5912 5911 5910 5910 5909 5909 5908 5908 5907 5906 5905 5904 5903 5902 5900 5899 5897 5895 5894 5892 5891 5889 5888 5887 5886 5885 5884 5883 5882 5881 5881 5880 5880 5879 5878 5878
5900 5903 5907 5909 5909 5909 5909 5908 5907 5907 5908 5909 5909 5908 5907 5907 5907 5906 5906 5905 5905 5904 5904 5903 5902 5901 5900 5898 5897 5895 5894 5892 5891 5889 5888 5887 5886 5884 5883 5882 5881 5880 5879 5879 5878 5877 5876 5876 5875
5894 5897 5900 5902 5905 5906 5907 5906 5902 5903 5904 5905 5904 5904 5903 5903 5903 5900 5902 5902 5902 5901 5900 5900 5899 5898 5897 5896 5895 5893 5892 5890 5889 5888 5886 5885 5884 5882 5881 5880 5879 5878 5877 5876 5875 5874 5873 5872 5871
5889 5892 5895 5897 5899 5900 5902 5902 5899 5900 5900 5900 5899 5899 5897 5898 5898 5897 5897 5897 5898 5898 5897 5896 5896 5895 5894 5893 5892 5890 5889 5887 5886 5885 5884 5883 5882 5880 5879 5878 5877 5876 5874 5873 5872 5871 5870 5869 5868